Preview of NWS' New Version of Forecast
This preview is not operational and should not be used for support decisions.

Regional Weather Roundup (RWR)

Issued by Gray - Portland, ME (GYX)

                            
000
ASUS41 KGYX 240105
RWRGYX
WEATHER ROUNDUP FOR MAINE AND NEW HAMPSHIRE
NATIONAL WEATHER SERVICE GRAY ME
900 PM EDT THU MAY 23 2019

MEZ002-005-006-010-012-015-018-020-021-024-026-027-029-240200-
MAINE
  
CITY           SKY/WX    TMP DP  RH WIND       PRES   REMARKS
PORTLAND       LGT RAIN  56  50  80 S10       29.83F                  
SANFORD        LGT RAIN  57  52  83 SW3       29.83S                  
BAR HARBOR     LGT RAIN  50  45  83 SE6       29.90F                  
WISCASSET      LGT RAIN  52  48  86 S5        29.86F                  
ROCKLAND       LGT RAIN  49  46  90 S9        29.87F                  
FRYEBURG       LGT RAIN  57  56  96 CALM      29.80F                  
LEWISTONAUBURN LGT RAIN  53  50  89 SE5       29.83F                  
AUGUSTA        LGT RAIN  52  49  89 SE9       29.84F                  
WATERVILLE     LGT RAIN  52  49  89 VRB3      29.82F                  
BANGOR         LGT RAIN  52  46  80 SE10      29.87F                  
GREENVILLE       N/A     50  46  86 SE9       29.81F                  
MILLINOCKET    LGT RAIN  56  45  66 SE3       29.88F                  
HOULTON        LGT RAIN  55  46  71 S3        29.89F                  
PRESQUE ISLE   CLOUDY    56  45  66 SW5       29.89F                  
FRENCHVILLE    LGT RAIN  58  42  55 SW8       29.87F                  
CARIBOU        CLOUDY    59  40  49 SW9       29.88F                  
$$

NHZ002-005-008-009-011-012-014-240200-
NEW HAMPSHIRE
  
CITY           SKY/WX    TMP DP  RH WIND       PRES   REMARKS
PORTSMOUTH     LGT RAIN  61  52  71 SW10      29.79F                  
ROCHESTER      CLOUDY    61  51  70 VRB3      29.81F                  
NASHUA         MOCLDY    61  57  87 VRB5      29.81F                  
MANCHESTER     FAIR      61  53  75 S9        29.79F                  
CONCORD        CLOUDY    60  52  74 S8        29.79F                  
LACONIA        LGT RAIN  60  56  86 S6        29.79F                  
PLYMOUTH       CLOUDY    59  56  91 CALM      29.77F                  
BERLIN         NOT AVBL                                               
WHITEFIELD     RAIN      57  53  86 CALM      29.73F                  
JAFFREY        FAIR      58  52  80 S9        29.81F                  
KEENE          FAIR      59  54  83 S9        29.78F                  
LEBANON        CLOUDY    60  54  80 CALM      29.74F                  
MT WASHINGTON  FOG       41  41 100 SW32G48     N/A  VSB 0            
$$

VTZ005-007-008-240200-
VERMONT
  
CITY           SKY/WX    TMP DP  RH WIND       PRES   REMARKS
ST JOHNSBURY     N/A     59  58  96 MISG      29.71F                  
MONTPELIER     LGT RAIN  59  56  89 S13       29.74F                  
BURLINGTON     CLOUDY    63  59  87 S17G28    29.67F                  
$$

MAZ007-012-024-CTZ003-RIZ002-NYZ038-NYZ072-240200-
SOUTHERN NEW ENGLAND AND NY
  
CITY           SKY/WX    TMP DP  RH WIND       PRES   REMARKS
BOSTON         CLOUDY    61  55  81 SW14      29.84F                  
WORCESTER      MOCLDY    56  55  97 SW12      29.84F                  
NANTUCKET      CLOUDY    55  53  93 S15       29.94F                  
PROVIDENCE     CLOUDY    59  56  89 SW10      29.89F                  
HARTFORD       MOCLDY    64  56  75 S9        29.83F                  
ALBANY         FAIR      68  59  73 S17G25    29.71F                  
NEW YORK CITY  MOCLDY    66  61  84 S8        29.86F                  
$$

ANZ081-ANZ082-ANZ150-NHZ014-MEZ023>029-240200-
COASTAL MARINE OBSERVATIONS
  
STATION/POSITION TIME  TEMP    WIND        PRES    WAVE
                       AIR SEA DIR/SP/G            HT/PER
                 (UTC) (F)     (DEG/KT/KT) (MB)    (FT/S)
ISLE OF SHOALS   0000   56     180/ 22/ 23 1010.0F
JEFFREYS LEDGE   0038      47                N/A     4/ 5
GEORGES BANK BUO 0050   49 45  180/ 12/ 12 1019.5F   3/ 8
$$

.............KEY..............
   WCI - WIND CHILL
   TC  - TEMPERATURE IN CELSIUS
   VSB - VISIBILITY IN MILES
   HX  - HEAT INDEX
   FAIR- INDICATES FEW OR NO CLOUDS BELOW 12,000 FT, WITH NO 
         SIGNIFICANT WEATHER AND/OR OBSTRUCTIONS TO VISIBILITY.